Location: Rounton
(54.4000°N, 1.3500°W)
Time: 04:37:52
(UTC+00:00)

S-56A Canister/Altair - Pass Details

Date: 05 December 2021
Orbit: 633 x 2499 km, 38.9° (Epoch: 17 January)

Event Time Altitude Azimuth Distance (km) Brightness Sun altitude
Rises 00:38:20 0° 232° (SW) 5,000 - -57.0°
Reaches altitude 10° 00:42:55 10° 219° (SW) 3,644 - -56.8°
Maximum altitude 00:49:08 21° 175° (S) 2,364 - -56.4°
Drops below altitude 10° 00:53:56 10° 127° (SE) 2,714 - -56.2°
Sets 00:56:46 0° 111° (ESE) 3,437 - -56.0°
